Weather History for Estherville, IA

Change the Weather History Date:

Sunday, March 24, 2013

  Actual Average Record
Temperature  
Mean Temperature 26 °F 37 °F  
Max Temperature 30 °F 46 °F 76 °F (1963)
Min Temperature 22 °F 27 °F -5 °F (1974)
Degree Days  
Heating Degree Days 39 28  
Month to date heating degree days 989 813  
Since 1 July heating degree days 6628 6728  
Cooling Degree Days 0 0  
Month to date cooling degree days 0 0  
Year to date cooling degree days 0 0  
Moisture  
Dew Point 22 °F    
Average Humidity 80    
Maximum Humidity 92    
Minimum Humidity 68    
Precipitation  
Precipitation T in 0.06 in 1.25 in (1966)
Month to date precipitation 1.05 1.06  
Sea Level Pressure  
Sea Level Pressure 30.02 in    
Wind  
Wind Speed 17 mph (NNW)    
Max Wind Speed 23 mph    
Max Gust Speed 26 mph    
Visibility 4 miles    
Events Snow    
T = Trace of Precipitation, MM = Missing Value Source: NWS Daily Summary

Daily Weather History Graph

Daily Weather History Graph

Search for Another Location

Airport:

Trip Planner

Search our weather history database for the weather conditions in past years. The results will help you decide how hot, cold, wet, or windy it might be!

Date:

Astronomy

Mar. 24, 2013 Rise Set
Actual Time 7:14 AM CDT 7:36 PM CDT
Civil Twilight 6:45 AM CDT 8:05 PM CDT
Nautical Twilight 6:12 AM CDT 8:38 PM CDT
Astronomical Twilight 5:37 AM CDT 9:13 PM CDT
Moon 5:02 PM CDT (3/24) 5:29 AM CDT (3/24)
Length of Visible Light 13h 19m
Length of Day
12h 21m
Waxing Gibbous, 92% of the Moon is Illuminated
Mar 24
Waxing Gibbous
Mar 27
Full
Apr 2
Last Quarter
Apr 10
New
Apr 18
First Quarter

Hourly Weather History & Observations

Time (CDT) Temp. Windchill Dew Point Humidity Pressure Visibility Wind Dir Wind Speed Gust Speed Precip Events Conditions
12:52 AM 24.1 °F 12.0 °F 17.1 °F 75% 30.13 in 10.0 mi NNW 13.8 mph - N/A   Overcast
1:52 AM 24.1 °F 12.0 °F 16.0 °F 71% 30.13 in 10.0 mi NNW 13.8 mph - N/A   Overcast
2:52 AM 24.1 °F 11.5 °F 17.1 °F 75% 30.12 in 10.0 mi NNW 15.0 mph - N/A   Overcast
3:52 AM 23.0 °F 9.6 °F 19.0 °F 85% 30.11 in 1.8 mi NNW 16.1 mph - 0.00 in Snow Light Snow
4:12 AM 23.0 °F 10.6 °F 19.4 °F 86% 30.05 in 2.0 mi NNW 13.8 mph - 0.00 in Snow Light Snow
4:52 AM 23.0 °F 9.6 °F 19.9 °F 88% 30.09 in 1.8 mi NNW 16.1 mph - 0.00 in Snow Light Snow
5:01 AM 23.0 °F 9.6 °F 19.4 °F 86% 30.04 in 2.5 mi NNW 16.1 mph - 0.00 in Snow Light Snow
5:09 AM 23.0 °F 10.6 °F 19.4 °F 86% 30.04 in 3.0 mi NNW 13.8 mph - 0.00 in Snow Light Snow
5:16 AM 23.0 °F 11.1 °F 19.4 °F 86% 30.03 in 3.0 mi NNW 12.7 mph - 0.00 in Snow Light Snow
5:52 AM 21.9 °F 9.2 °F 19.0 °F 89% 30.08 in 5.0 mi NNW 13.8 mph - 0.00 in Snow Light Snow
6:52 AM 21.9 °F 9.2 °F 19.0 °F 89% 30.08 in 4.0 mi NNW 13.8 mph - 0.00 in   Overcast
7:52 AM 21.9 °F 8.7 °F 18.0 °F 85% 30.07 in 4.0 mi NNW 15.0 mph - 0.00 in   Mostly Cloudy
8:05 AM 21.2 °F 8.3 °F 17.6 °F 86% 30.02 in 5.0 mi NNW 13.8 mph - N/A   Mostly Cloudy
8:28 AM 21.2 °F 6.8 °F 17.6 °F 86% 30.02 in 2.0 mi NNW 17.3 mph - 0.00 in Snow Light Snow
8:48 AM 21.2 °F 6.8 °F 19.4 °F 93% 30.01 in 1.8 mi NNW 17.3 mph - 0.00 in Snow Light Snow
8:52 AM 21.9 °F 7.8 °F 18.0 °F 85% 30.07 in 1.8 mi NNW 17.3 mph - 0.00 in Snow Light Snow
9:22 AM 23.0 °F 9.2 °F 19.4 °F 86% 30.01 in 2.0 mi NNW 17.3 mph - 0.00 in Snow Light Snow
9:45 AM 23.0 °F 9.6 °F 19.4 °F 86% 30.01 in 2.5 mi NNW 16.1 mph - 0.00 in Snow Light Snow
9:52 AM 24.1 °F 11.0 °F 19.0 °F 81% 30.06 in 2.5 mi NNW 16.1 mph - 0.00 in Snow Light Snow
10:04 AM 24.8 °F 11.1 °F 19.4 °F 80% 30.01 in 1.8 mi NNW 18.4 mph - 0.00 in Snow Light Snow
10:12 AM 24.8 °F 11.9 °F 19.4 °F 80% 30.01 in 2.5 mi NNW 16.1 mph - 0.00 in Snow Light Snow
10:33 AM 24.8 °F 11.1 °F 19.4 °F 80% 30.00 in 3.0 mi NNW 18.4 mph - 0.00 in Snow Light Snow
10:52 AM 25.0 °F 10.9 °F 19.9 °F 81% 30.06 in 5.0 mi NNW 19.6 mph - 0.00 in Snow Light Snow
11:00 AM 26.6 °F 13.4 °F 21.2 °F 80% 30.00 in 4.0 mi NNW 18.4 mph - 0.00 in Snow Light Snow
11:16 AM 26.6 °F 13.4 °F 21.2 °F 80% 30.00 in 3.0 mi NNW 18.4 mph - 0.00 in Snow Light Snow
11:29 AM 26.6 °F 13.8 °F 21.2 °F 80% 29.99 in 4.0 mi NNW 17.3 mph - 0.00 in Snow Light Snow
11:52 AM 27.0 °F 15.2 °F 21.9 °F 81% 30.05 in 8.0 mi NNW 15.0 mph - 0.00 in   Overcast
12:52 PM 28.0 °F 16.1 °F 23.0 °F 81% 30.04 in 4.0 mi NNW 16.1 mph - N/A   Haze
1:32 PM 28.4 °F 16.6 °F 24.8 °F 86% 29.97 in 2.5 mi NNW 16.1 mph - 0.00 in Snow Light Snow
1:52 PM 30.0 °F 18.7 °F 25.0 °F 82% 30.02 in 3.0 mi NNW 16.1 mph - 0.00 in Snow Light Snow
2:52 PM 30.0 °F 18.7 °F 24.1 °F 79% 30.01 in 4.0 mi NNW 16.1 mph 23.0 mph 0.00 in Snow Light Snow
3:43 PM 30.2 °F 19.3 °F 24.8 °F 80% 29.95 in 9.0 mi NNW 15.0 mph - 0.00 in   Overcast
3:52 PM 30.0 °F 18.7 °F 25.0 °F 82% 30.01 in 3.0 mi North 16.1 mph - 0.00 in Snow Light Snow
4:11 PM 30.2 °F 18.9 °F 24.8 °F 80% 29.95 in 10.0 mi North 16.1 mph - 0.00 in   Overcast
4:24 PM 30.2 °F 19.3 °F 24.8 °F 80% 29.95 in 10.0 mi North 15.0 mph - 0.00 in   Overcast
5:52 PM 28.9 °F 16.5 °F 23.0 °F 78% 30.02 in 6.0 mi North 18.4 mph - N/A   Haze
6:09 PM 28.4 °F 15.4 °F 23.0 °F 80% 29.97 in 10.0 mi North 19.6 mph - N/A   Overcast
6:46 PM 28.4 °F 15.8 °F 24.8 °F 86% 29.97 in 1.8 mi NNW 18.4 mph - 0.00 in Snow Light Snow
6:52 PM 28.0 °F 15.7 °F 25.0 °F 88% 30.03 in 1.0 mi NNW 17.3 mph - 0.00 in Snow Light Snow
7:03 PM 28.4 °F 16.2 °F 24.8 °F 86% 29.97 in 2.0 mi NNW 17.3 mph - 0.00 in Snow Light Snow
7:12 PM 28.4 °F 16.6 °F 24.8 °F 86% 29.98 in 5.0 mi NNW 16.1 mph - 0.00 in   Overcast
7:19 PM 28.4 °F 16.6 °F 24.8 °F 86% 29.98 in 6.0 mi NNW 16.1 mph - 0.00 in   Overcast
7:31 PM 28.4 °F 16.6 °F 24.8 °F 86% 29.98 in 1.8 mi NNW 16.1 mph - 0.00 in Snow Light Snow
7:37 PM 28.4 °F 16.2 °F 24.8 °F 86% 29.98 in 2.0 mi NNW 17.3 mph - 0.00 in Snow Light Snow
7:40 PM 28.4 °F 16.6 °F 24.8 °F 86% 29.98 in 3.0 mi NNW 16.1 mph - 0.00 in Snow Light Snow
7:48 PM 28.4 °F 16.2 °F 24.8 °F 86% 29.98 in 9.0 mi NNW 17.3 mph - 0.00 in   Overcast
7:52 PM 28.9 °F 17.3 °F 24.1 °F 82% 30.04 in 10.0 mi NNW 16.1 mph - 0.00 in   Overcast
8:15 PM 28.4 °F 17.5 °F 24.8 °F 86% 29.99 in 7.0 mi North 13.8 mph 23.0 mph 0.00 in Snow Light Snow
8:36 PM 28.4 °F 16.2 °F 24.8 °F 86% 29.99 in 6.0 mi North 17.3 mph 24.2 mph 0.00 in Snow Light Snow
8:52 PM 28.9 °F 16.1 °F 24.1 °F 82% 30.05 in 3.0 mi North 19.6 mph 24.2 mph 0.00 in Snow Light Snow
9:00 PM 28.4 °F 16.2 °F 24.8 °F 86% 30.00 in 1.8 mi North 17.3 mph 26.5 mph 0.00 in Snow Light Snow
9:12 PM 28.4 °F 16.2 °F 24.8 °F 86% 30.00 in 1.8 mi North 17.3 mph - 0.00 in Snow Light Snow
9:17 PM 28.4 °F 15.8 °F 24.8 °F 86% 30.00 in 3.0 mi North 18.4 mph - 0.00 in Snow Light Snow
9:35 PM 28.4 °F 15.8 °F 24.8 °F 86% 30.00 in 5.0 mi North 18.4 mph - 0.00 in Snow Light Snow
9:43 PM 28.4 °F 16.2 °F 24.8 °F 86% 30.00 in 4.0 mi North 17.3 mph 24.2 mph 0.00 in Snow Light Snow
9:52 PM 28.0 °F 15.7 °F 25.0 °F 88% 30.06 in 1.8 mi North 17.3 mph 24.2 mph 0.00 in Snow Light Snow
10:02 PM 28.4 °F 15.4 °F 24.8 °F 86% 30.01 in 2.0 mi North 19.6 mph - 0.00 in Snow Light Snow
10:15 PM 28.4 °F 15.8 °F 24.8 °F 86% 30.01 in 3.0 mi North 18.4 mph - 0.00 in Snow Light Snow
10:33 PM 28.4 °F 16.6 °F 24.8 °F 86% 30.01 in 2.0 mi North 16.1 mph - 0.00 in Snow Light Snow
10:48 PM 28.4 °F 16.2 °F 24.8 °F 86% 30.01 in 2.0 mi North 17.3 mph - 0.00 in Snow Light Snow
10:52 PM 28.0 °F 14.9 °F 25.0 °F 88% 30.06 in 2.5 mi North 19.6 mph 25.3 mph 0.00 in Snow Light Snow
11:13 PM 28.4 °F 16.6 °F 24.8 °F 86% 30.01 in 3.0 mi North 16.1 mph 24.2 mph 0.00 in Snow Light Snow
11:44 PM 28.4 °F 15.8 °F 24.8 °F 86% 30.01 in 2.5 mi North 18.4 mph - 0.00 in Snow Light Snow
11:52 PM 27.0 °F 13.9 °F 24.1 °F 89% 30.07 in 1.0 mi North 18.4 mph 26.5 mph 0.00 in Snow Light Snow
11:55 PM 26.6 °F 12.4 °F 24.8 °F 93% 30.01 in 1.2 mi North 21.9 mph 26.5 mph 0.00 in Snow Light Snow